Location: Nied?wied?
(53.3665°N, 14.8184°E)
Time: 23:24:09
(UTC+00:00)

Meteor 1-25 Rocket - Pass Details

Date: 03 March 2021
Orbit: 835 x 893 km, 81.2° (Epoch: 12 April)

Event Time Altitude Azimuth Distance (km) Brightness Sun altitude
Rises 17:31:46 0° 185° (S) 3,470 7.5 -8.1°
Reaches altitude 10° 17:34:13 10° 184° (S) 2,528 6.7 -8.5°
Maximum altitude 17:39:57 75° 100° (E) 904 4.2 -9.3°
Drops below altitude 10° 17:45:38 10° 16° (NNE) 2,506 6.5 -10.2°
Sets 17:48:03 0° 15° (NNE) 3,438 7.2 -10.5°
